Погода в Ковалях

Россия / Чувашская Республика     55°40′44″N   48°03′11″E
темп.,
°C
ветер,
м/с
пор.,
м/с
влажн.,
%
обл.,
%
осадки,
мм/ч
давл.,
гПа
погр.,
м
20 июня, вс
вс2000:00+16з411920 0.0 1021183
03:00+16зсз39930 0.0 1022145
06:00+20зсз47841 0.0 1022214
09:00+24зсз45685 0.0 1022560
12:00+27зсз45575 0.0 10221212
15:00+28з44555 0.0 10211496
18:00+26з47726 0.0 1021309
21:00+21з228817 0.0 102114
21 июня, пн
пн2100:00+20юз2288100 0.0 102227
03:00+20зюз3484100 0.0 102294
06:00+21зюз36852 0.0 1022184
09:00+25з45680 0.0 1022584
12:00+28з44570 0.0 10221323
15:00+28з44540 0.0 10211586
18:00+26з36700 0.0 1020243
21:00+21з33850 0.0 102247
22 июня, вт
вт2200:00+20з34910 0.0 102260
03:00+19з33930 0.0 102255
06:00+22з34820 0.0 1023180
09:00+26зсз34664 0.0 1022546
12:00+29зсз445525 0.0 10221461
15:00+29з445556 0.0 10221443
18:00+27з366850 0.0 1021221
21:00+22з33830 0.0 102134
23 июня, ср
ср2300:00+20з33900 0.0 102140
03:00+19з22900 0.0 102223
06:00+22зсз35800 0.0 1021163
09:00+27зсз45650 0.1 1021614
12:00+29зсз45510 0.4 10201869
15:00+30з45495 0.4 10201934
18:00+27з58696 0.0 1019362
21:00+23з38841 0.3 1019154
24 июня, чт
чт2400:00+20зсз22879 0.0 101933
03:00+19сз33920 0.0 101946
06:00+21с258261 0.1 1019170
09:00+26сз23614 0.1 1019616
12:00+29ссз33524 0.0 1019988
15:00+30ссз13475 0.0 10181685
18:00+30зюз12584 0.0 1017137
21:00+23юв357889 0.0 101877